Regional Weather Roundup
Issued by NWS

Home | Current Version | Previous Version | Text Only | Print | Product List | Glossary On
Versions: 1 2 3 4 5 6 7 8 9 10 11 12 13 14 15 16 17 18 19 20 21 22 23 24 25 26 27 28 29 30 31 32 33 34 35 36 37 38 39 40 41 42 43 44 45 46 47 48 49 50
975
ASUS43 KDTX 230101
RWRMI
MICHIGAN HOURLY REGIONAL WEATHER ROUNDUP
NATIONAL WEATHER SERVICE DETROIT/PONTIAC MI
900 PM EDT FRI SEP 22 2017

NOTE: "FAIR" INDICATES FEW OR NO CLOUDS BELOW 12,000 FEET WITH NO
SIGNIFICANT WEATHER AND/OR OBSTRUCTION TO VISIBILITY.

MIZ047>049-052>055-059>063-066>070-074>076-081>083-230200-
SOUTHEAST LOWER MICHIGAN

CITY           SKY/WX    TMP DP  RH WIND       PRES   REMARKS
ADRIAN         CLOUDY    77  66  68 CALM      30.09S
ALMA           CLEAR     78  63  60 CALM      30.06R
ANN ARBOR      CLEAR     71  67  87 CALM      30.08S
BAD AXE        PTCLDY    75  67  77 CALM      30.08R
CARO           CLEAR     74  67  79 CALM      30.06R
DETROIT CITY   CLEAR     77  67  71 SE3       30.08S
DETROIT        PTCLDY    75  66  73 S5        30.09S
FLINT          CLEAR     81  67  62 S7        30.07S
GROSSE ILE     CLEAR     72  69  90 CALM      30.07S
HILLSDALE      CLOUDY    70  63  78 CALM      30.09F
HOWELL         CLEAR     80  67  65 S5        30.08S

CITY           SKY/WX    TMP DP  RH WIND       PRES   REMARKS
JACKSON        PTCLDY    76  67  73 CALM      30.09R
LAMBERTVILLE   CLOUDY    73  67  84 CALM      30.08S
LANSING        CLEAR     79  65  62 CALM      30.07S
LAPEER         FAIR      77  66  69 CALM      30.08R
MASON          CLOUDY    79  65  61 S3        30.08S
MONROE         CLEAR     73  67  83 CALM      30.08S
PONTIAC        PTCLDY    80  69  69 SE3       30.08S
PORT HOPE        N/A     74  67  78 CALM      30.05R
PORT HURON     CLEAR     70  66  88 CALM      30.08S
TRI CITIES     CLEAR     82  69  64 S5        30.05R
MIDLAND        MOCLDY    76  69  79 CALM      30.04S
TROY           CLEAR     80  65  61 CALM      30.10S
SAGINAW HB     CLEAR     79  66  65 S5        30.04S
$$
MIZ043>046-050>051-056>058-064>065-071>073-077>080-230200-
SOUTHWEST LOWER MICHIGAN

CITY           SKY/WX    TMP DP  RH WIND       PRES   REMARKS
BATTLE CREEK   CLEAR     79  63  57 CALM      30.08S
BENTON HARBOR  CLEAR     74  68  81 E3        30.05S
BIG RAPIDS     CLEAR     73  64  75 CALM      30.07S
COLDWATER      CLEAR     73  65  76 SE5       30.08S
FREMONT        FAIR      73  64  73 CALM      30.04S
HOLLAND        CLEAR     74  65  73 CALM      30.05F
GRAND RAPIDS   PTCLDY    81  65  58 CALM      30.05F
IONIA          FAIR      81  64  57 SW3       30.05S
KALAMAZOO      CLEAR     81  63  54 S5        30.07R
LUDINGTON      CLEAR     71  67  85 CALM      30.03S
MARSHALL       CLEAR     73  63  70 CALM      30.08S
MUSKEGON       PTCLDY    76  67  73 CALM      30.04S
SOUTH HAVEN    CLEAR     74  69  85 CALM      30.05F
$$
MIZ016>042-230200-
NORTHERN LOWER MICHIGAN

CITY           SKY/WX    TMP DP  RH WIND       PRES   REMARKS
ALPENA         CLOUDY    69  67  93 S9        30.07R
BEAVER ISLAND  PTCLDY    70  61  72 SE6       29.98R
BELLAIRE       CLOUDY    70  62  75 CALM      30.02R
CADILLAC       CLOUDY    72  63  74 E5        30.08S
CHARLEVOIX     PTCLDY    73  60  65 S7        30.02S
FRANKFORT      CLOUDY    75  67  76 CALM      30.01S
GAYLORD        CLOUDY    68  59  73 SE5       30.07R
GRAYLING       CLOUDY    69  63  81 SE8       30.08F
HARBOR SPRINGS PTCLDY    69  62  79 N3        30.00R
HOUGHTON LAKE  CLOUDY    68  63  84 N6        30.10S
MANISTEE       CLEAR     69  66  90 E5        30.03S
OSCODA         HVY RAIN  69  66  90 N10       30.10S
PELLSTON       PTCLDY    70  61  73 E3        30.00R
ROGERS CITY    PTCLDY    71  64  76 S7        30.03S
TRAVERSE CITY  CLOUDY    74  62  66 S5        30.00F
$$
MIZ007>008-015-230200-
EASTERN UPPER MICHIGAN

CITY           SKY/WX    TMP DP  RH WIND       PRES   REMARKS
KINROSS        CLOUDY    66  65  96 SE7       30.02R
MACKINAC ISLAN PTCLDY    70  63  78 SE8       30.01R
NEWBERRY       CLOUDY    65  64  97 S9        29.99R
S. S. MARIE    CLOUDY    68  66  93 S5        30.01R
MUNISING         N/A     68  65  90 S6        29.95R
$$
MIZ004>006-011>014-085-230200-
CENTRAL UPPER MICHIGAN

CITY           SKY/WX    TMP DP  RH WIND       PRES   REMARKS
MANISTIQUE     CLOUDY    65  59  81 SW5       29.98S
ESCANABA       CLEAR     66  64  93 CALM      29.98R
MENOMINEE      CLEAR     71  64  78 S6        29.98S
SAWYER-GWINN   CLEAR     64  64 100 S12       29.97S
$$
MIZ001>003-009>011-084-230200-
WESTERN UPPER MICHIGAN

CITY           SKY/WX    TMP DP  RH WIND       PRES   REMARKS
IRON MOUNTAIN  CLEAR     67  64  90 SE6       29.97S
HOUGHTON       PTCLDY    65  61  87 E9        29.91R
COPPER HARBOR    N/A     66  61  84 CALM      29.90F
IRONWOOD       CLEAR     77  69  76 S14G28    29.87S
$$

ABBREVIATIONS USED IN REMARKS
   TC - TEMPERATURE IN CELSIUS
  WCI - WIND CHILL INDEX
   HX - HEAT INDEX
  VSB - VISIBILITY





USA.gov is the U.S. government's official web portal to all federal, state and local government web resources and services.